DLH2YM EDDF-EDDW

Flight info

Callsign DLH2YM
Flight time 0h 40m
Altitude 22000
Route MARUN3W/25C MARUN Y153 WRB N850 NIE Z88 VERED
Aircraft A321/M-SDE2E3FGIJ1LORWXYZ/HB1

Departure

Time 2026-04-18 09:47
Airport Frankfurt Main Airport (EDDF)

Arrival

Time 2026-04-18 10:28
Airport Bremen Airport (EDDW)
Time Latitude Longitude Altitude Speed Heading
2026-04-18 09:00 50.04687 8.56701 346 ft 0 kts 116°
2026-04-18 09:33 50.04691 8.56689 359 ft 3 kts 117°
2026-04-18 09:33 50.04700 8.56661 351 ft 3 kts 119°
2026-04-18 09:33 50.04710 8.56634 348 ft 3 kts 116°
2026-04-18 09:33 50.04718 8.56606 356 ft 3 kts 99°
2026-04-18 09:34 50.04718 8.56580 354 ft 2 kts 58°
2026-04-18 09:34 50.04708 8.56557 352 ft 3 kts 51°
2026-04-18 09:34 50.04695 8.56533 358 ft 3 kts 49°
2026-04-18 09:34 50.04683 8.56509 355 ft 3 kts 66°
2026-04-18 09:35 50.04676 8.56480 356 ft 3 kts 69°
2026-04-18 09:35 50.04669 8.56450 358 ft 3 kts 69°
2026-04-18 09:35 50.04662 8.56420 356 ft 3 kts 69°
2026-04-18 09:35 50.04655 8.56391 358 ft 3 kts 69°
2026-04-18 09:36 50.04648 8.56361 355 ft 3 kts 69°
2026-04-18 09:36 50.04641 8.56332 350 ft 3 kts 69°
2026-04-18 09:36 50.04634 8.56302 349 ft 3 kts 69°
2026-04-18 09:36 50.04631 8.56288 351 ft 0 kts 69°
2026-04-18 09:39 50.04639 8.56320 351 ft 11 kts 69°
2026-04-18 09:39 50.04632 8.56455 351 ft 14 kts 144°
2026-04-18 09:40 50.04547 8.56432 349 ft 13 kts 208°
2026-04-18 09:40 50.04499 8.56314 351 ft 14 kts 251°
2026-04-18 09:40 50.04465 8.56166 354 ft 15 kts 250°
2026-04-18 09:40 50.04421 8.56038 347 ft 12 kts 215°
2026-04-18 09:41 50.04345 8.56061 351 ft 12 kts 155°
2026-04-18 09:41 50.04291 8.56162 350 ft 16 kts 103°
2026-04-18 09:41 50.04183 8.56272 353 ft 20 kts 162°
2026-04-18 09:41 50.04150 8.56371 351 ft 8 kts 69°
2026-04-18 09:42 50.04176 8.56484 352 ft 14 kts 68°
2026-04-18 09:42 50.04214 8.56645 353 ft 17 kts 70°
2026-04-18 09:42 50.04256 8.56822 358 ft 18 kts 70°
2026-04-18 09:42 50.04303 8.57020 356 ft 23 kts 69°
2026-04-18 09:43 50.04363 8.57264 353 ft 24 kts 67°
2026-04-18 09:43 50.04418 8.57494 354 ft 19 kts 71°
2026-04-18 09:43 50.04391 8.57655 350 ft 11 kts 152°
2026-04-18 09:43 50.04376 8.57664 355 ft 0 kts 161°
2026-04-18 09:44 50.04375 8.57664 355 ft 0 kts 161°
2026-04-18 09:45 50.04358 8.57673 348 ft 8 kts 161°
2026-04-18 09:46 50.04286 8.57703 352 ft 11 kts 187°
2026-04-18 09:46 50.04257 8.57632 354 ft 6 kts 249°
2026-04-18 09:46 50.04231 8.57527 353 ft 31 kts 249°
2026-04-18 09:46 50.04033 8.56692 350 ft 129 kts 250°
2026-04-18 09:47 50.03645 8.55053 661 ft 175 kts 250°
2026-04-18 09:47 50.03241 8.53260 1749 ft 181 kts 252°
2026-04-18 09:47 50.02807 8.51395 2472 ft 188 kts 252°
2026-04-18 09:47 50.02103 8.49571 2839 ft 207 kts 228°
2026-04-18 09:48 50.00901 8.48312 3387 ft 212 kts 203°
2026-04-18 09:48 49.99452 8.47841 4054 ft 213 kts 189°
2026-04-18 09:48 49.97990 8.47525 4753 ft 212 kts 190°
2026-04-18 09:48 49.96528 8.47201 5447 ft 212 kts 190°
2026-04-18 09:49 49.95087 8.46630 5996 ft 220 kts 198°
2026-04-18 09:49 49.93568 8.45926 6287 ft 241 kts 197°
2026-04-18 09:49 49.92022 8.44865 6989 ft 246 kts 218°
2026-04-18 09:49 49.90940 8.42823 7781 ft 249 kts 245°
2026-04-18 09:50 49.90618 8.40184 8589 ft 254 kts 274°
2026-04-18 09:50 49.91171 8.37577 9409 ft 259 kts 303°
2026-04-18 09:50 49.92504 8.35684 10213 ft 265 kts 331°
2026-04-18 09:50 49.94237 8.34486 10671 ft 282 kts 335°
2026-04-18 09:51 49.96125 8.33261 10905 ft 305 kts 335°
2026-04-18 09:51 49.98133 8.31976 11156 ft 325 kts 336°
2026-04-18 09:51 50.00253 8.30620 11727 ft 332 kts 335°
2026-04-18 09:51 50.02428 8.29365 12435 ft 336 kts 342°
2026-04-18 09:52 50.04768 8.28818 13184 ft 342 kts 355°
2026-04-18 09:52 50.07165 8.29120 13919 ft 349 kts
2026-04-18 09:52 50.09509 8.30209 14547 ft 354 kts 15°
2026-04-18 09:52 50.11828 8.31439 15157 ft 357 kts 15°
2026-04-18 09:53 50.14202 8.32689 15765 ft 361 kts 15°
2026-04-18 09:53 50.16603 8.33946 16375 ft 365 kts 15°
2026-04-18 09:53 50.19028 8.35216 16987 ft 369 kts 15°
2026-04-18 09:53 50.21472 8.36499 17586 ft 373 kts 15°
2026-04-18 09:54 50.23938 8.37796 18176 ft 376 kts 15°
2026-04-18 09:54 50.26407 8.39097 18707 ft 380 kts 15°
2026-04-18 09:54 50.28930 8.40423 19213 ft 383 kts 15°
2026-04-18 09:54 50.31469 8.41769 19727 ft 386 kts 15°
2026-04-18 09:55 50.34036 8.43155 20252 ft 390 kts 16°
2026-04-18 09:55 50.35740 8.44085 20608 ft 392 kts 16°
2026-04-18 09:55 50.39164 8.45966 21280 ft 396 kts 16°
2026-04-18 09:55 50.40924 8.46936 21615 ft 398 kts 16°
2026-04-18 09:56 50.44404 8.48857 22118 ft 402 kts 16°
2026-04-18 09:56 50.46181 8.49836 22172 ft 397 kts 16°
2026-04-18 09:56 50.48728 8.51215 22198 ft 387 kts 15°
2026-04-18 09:56 50.51286 8.52496 22191 ft 385 kts 14°
2026-04-18 09:57 50.53848 8.53707 22191 ft 384 kts 13°
2026-04-18 09:57 50.56423 8.54890 22194 ft 384 kts 13°
2026-04-18 09:57 50.58993 8.56073 22189 ft 384 kts 13°
2026-04-18 09:57 50.61559 8.57272 22198 ft 384 kts 13°
2026-04-18 09:58 50.64088 8.58474 22193 ft 384 kts 14°
2026-04-18 09:58 50.66653 8.59704 22188 ft 385 kts 14°
2026-04-18 09:58 50.69218 8.60944 22196 ft 385 kts 14°
2026-04-18 09:58 50.71780 8.62185 22196 ft 385 kts 14°
2026-04-18 09:59 50.74345 8.63432 22184 ft 385 kts 14°
2026-04-18 09:59 50.76906 8.64673 22192 ft 385 kts 14°
2026-04-18 09:59 50.79476 8.65916 22192 ft 385 kts 14°
2026-04-18 10:00 50.84554 8.68536 22184 ft 386 kts 17°
2026-04-18 10:00 50.87068 8.70081 22180 ft 387 kts 19°
2026-04-18 10:00 50.89562 8.71708 22189 ft 387 kts 19°
2026-04-18 10:00 50.92055 8.73366 22186 ft 387 kts 20°
2026-04-18 10:01 50.94545 8.75014 22181 ft 387 kts 19°
2026-04-18 10:01 50.97009 8.76621 22184 ft 387 kts 19°
2026-04-18 10:01 50.99506 8.78226 22188 ft 387 kts 19°
2026-04-18 10:01 51.02013 8.79823 22187 ft 387 kts 19°
2026-04-18 10:02 51.04518 8.81411 22189 ft 387 kts 19°
2026-04-18 10:02 51.07022 8.83000 22191 ft 387 kts 19°
2026-04-18 10:02 51.09522 8.84590 22191 ft 387 kts 19°
2026-04-18 10:02 51.12026 8.86185 22196 ft 387 kts 19°
2026-04-18 10:03 51.14502 8.87766 22191 ft 387 kts 19°
2026-04-18 10:03 51.17005 8.89368 22196 ft 387 kts 19°
2026-04-18 10:03 51.19519 8.90977 22194 ft 387 kts 19°
2026-04-18 10:03 51.22024 8.92585 22199 ft 387 kts 19°
2026-04-18 10:04 51.24520 8.94194 22200 ft 387 kts 19°
2026-04-18 10:04 51.26990 8.95791 22193 ft 387 kts 19°
2026-04-18 10:04 51.27379 8.96043 22192 ft 387 kts 19°
2026-04-18 10:04 51.29880 8.97654 22186 ft 387 kts 19°
2026-04-18 10:05 51.32378 8.99272 22189 ft 387 kts 19°
2026-04-18 10:05 51.34882 9.00894 22190 ft 387 kts 19°
2026-04-18 10:05 51.37347 9.02493 22204 ft 387 kts 19°
2026-04-18 10:05 51.39856 9.04122 22189 ft 387 kts 19°
2026-04-18 10:06 51.42349 9.05740 22192 ft 387 kts 19°
2026-04-18 10:06 51.44849 9.07364 22191 ft 387 kts 19°
2026-04-18 10:06 51.47318 9.08972 22189 ft 387 kts 19°
2026-04-18 10:06 51.49832 9.10542 22189 ft 385 kts 14°
2026-04-18 10:07 51.52431 9.11506 22185 ft 381 kts
2026-04-18 10:07 51.55063 9.12048 22188 ft 381 kts
2026-04-18 10:07 51.57694 9.12600 22188 ft 381 kts
2026-04-18 10:07 51.60294 9.13159 22185 ft 381 kts
2026-04-18 10:08 51.62939 9.13738 22184 ft 381 kts
2026-04-18 10:08 51.65570 9.14312 22178 ft 381 kts
2026-04-18 10:08 51.68205 9.14885 22178 ft 381 kts
2026-04-18 10:08 51.70840 9.15454 22180 ft 381 kts
2026-04-18 10:09 51.73441 9.16017 22177 ft 382 kts
2026-04-18 10:09 51.76077 9.16591 22172 ft 381 kts
2026-04-18 10:09 51.78713 9.17164 22173 ft 381 kts
2026-04-18 10:09 51.81344 9.17733 22170 ft 382 kts
2026-04-18 10:10 51.83981 9.18308 22173 ft 382 kts
2026-04-18 10:10 51.86623 9.18885 22169 ft 381 kts
2026-04-18 10:10 51.89220 9.19457 22171 ft 382 kts
2026-04-18 10:10 51.91857 9.20092 22174 ft 382 kts
2026-04-18 10:11 51.94490 9.20779 22172 ft 382 kts
2026-04-18 10:11 51.97122 9.21489 22176 ft 382 kts
2026-04-18 10:11 51.99769 9.22204 22172 ft 394 kts
2026-04-18 10:11 52.02495 9.22935 22175 ft 398 kts
2026-04-18 10:12 52.05244 9.23665 22174 ft 399 kts
2026-04-18 10:12 52.07989 9.24306 22179 ft 398 kts
2026-04-18 10:12 52.10744 9.24832 22182 ft 398 kts
2026-04-18 10:12 52.13464 9.25287 22184 ft 398 kts
2026-04-18 10:13 52.16226 9.25730 22184 ft 398 kts
2026-04-18 10:13 52.18991 9.26184 22187 ft 398 kts
2026-04-18 10:13 52.21746 9.26657 22188 ft 398 kts
2026-04-18 10:13 52.24497 9.27166 22189 ft 398 kts
2026-04-18 10:14 52.27242 9.27797 22190 ft 399 kts
2026-04-18 10:14 52.29966 9.28519 22110 ft 392 kts
2026-04-18 10:14 52.32606 9.29262 21665 ft 386 kts
2026-04-18 10:14 52.35240 9.29997 21182 ft 380 kts
2026-04-18 10:15 52.37809 9.30065 20944 ft 362 kts 350°
2026-04-18 10:15 52.40291 9.29420 20021 ft 360 kts 346°
2026-04-18 10:15 52.42747 9.28671 18928 ft 357 kts 346°
2026-04-18 10:15 52.45172 9.27886 17868 ft 353 kts 346°
2026-04-18 10:16 52.47564 9.27098 16769 ft 348 kts 346°
2026-04-18 10:16 52.49918 9.26327 15728 ft 343 kts 346°
2026-04-18 10:16 52.52246 9.25575 14702 ft 338 kts 346°
2026-04-18 10:16 52.54547 9.24842 13699 ft 334 kts 347°
2026-04-18 10:17 52.56787 9.24133 12720 ft 328 kts 347°
2026-04-18 10:17 52.58971 9.23448 12207 ft 310 kts 347°
2026-04-18 10:17 52.61064 9.22793 11461 ft 301 kts 347°
2026-04-18 10:17 52.63088 9.22155 10696 ft 297 kts 347°
2026-04-18 10:18 52.65104 9.21515 9925 ft 293 kts 346°
2026-04-18 10:18 52.67097 9.20878 9147 ft 288 kts 347°
2026-04-18 10:18 52.69002 9.20272 8777 ft 269 kts 346°
2026-04-18 10:18 52.70798 9.19701 8454 ft 258 kts 346°
2026-04-18 10:19 52.72579 9.19131 8131 ft 262 kts 346°
2026-04-18 10:19 52.74371 9.18558 7808 ft 261 kts 347°
2026-04-18 10:19 52.76134 9.17994 7486 ft 261 kts 346°
2026-04-18 10:19 52.77924 9.17418 7162 ft 263 kts 346°
2026-04-18 10:20 52.79718 9.16841 6833 ft 262 kts 346°
2026-04-18 10:20 52.81507 9.16266 6499 ft 261 kts 346°
2026-04-18 10:20 52.83293 9.15691 6155 ft 262 kts 346°
2026-04-18 10:20 52.85083 9.15113 5829 ft 261 kts 346°
2026-04-18 10:21 52.86867 9.14541 5433 ft 263 kts 346°
2026-04-18 10:21 52.88648 9.13966 5038 ft 264 kts 347°
2026-04-18 10:21 52.90454 9.13390 4746 ft 262 kts 347°
2026-04-18 10:21 52.92238 9.12818 4486 ft 259 kts 347°
2026-04-18 10:22 52.93994 9.12248 4229 ft 255 kts 347°
2026-04-18 10:22 52.95726 9.11684 3973 ft 252 kts 347°
2026-04-18 10:22 52.97441 9.11133 3712 ft 249 kts 347°
2026-04-18 10:22 52.99098 9.10607 3461 ft 243 kts 347°
2026-04-18 10:23 53.00755 9.10078 3202 ft 238 kts 347°
2026-04-18 10:23 53.02325 9.09403 3048 ft 227 kts 334°
2026-04-18 10:23 53.03609 9.08062 3022 ft 210 kts 315°
2026-04-18 10:23 53.04529 9.06242 2969 ft 208 kts 299°
2026-04-18 10:24 53.05072 9.04062 2777 ft 202 kts 281°
2026-04-18 10:24 53.05180 9.01790 2545 ft 191 kts 266°
2026-04-18 10:24 53.05135 8.99671 2290 ft 176 kts 267°
2026-04-18 10:24 53.05096 8.97700 2071 ft 165 kts 266°
2026-04-18 10:25 53.05058 8.95837 1859 ft 157 kts 266°
2026-04-18 10:25 53.05021 8.94084 1649 ft 145 kts 266°
2026-04-18 10:25 53.04987 8.92450 1450 ft 137 kts 267°
2026-04-18 10:25 53.04953 8.90896 1272 ft 136 kts 267°
2026-04-18 10:26 53.04920 8.89341 1090 ft 134 kts 267°
2026-04-18 10:26 53.04886 8.87787 923 ft 135 kts 266°
2026-04-18 10:26 53.04857 8.86236 721 ft 135 kts 268°
2026-04-18 10:26 53.04820 8.84700 555 ft 133 kts 268°
2026-04-18 10:27 53.04786 8.83149 378 ft 134 kts 269°
2026-04-18 10:27 53.04755 8.81602 195 ft 133 kts 270°
2026-04-18 10:27 53.04716 8.80066 45 ft 131 kts 268°
2026-04-18 10:27 53.04688 8.78752 22 ft 91 kts 267°
2026-04-18 10:28 53.04671 8.77996 22 ft 42 kts 268°
2026-04-18 10:28 53.04662 8.77638 22 ft 22 kts 268°
2026-04-18 10:28 53.04732 8.77448 22 ft 21 kts 345°
2026-04-18 10:28 53.04875 8.77501 22 ft 22 kts 28°
2026-04-18 10:29 53.04993 8.77666 22 ft 23 kts 46°
2026-04-18 10:29 53.05107 8.77866 22 ft 24 kts 47°
2026-04-18 10:29 53.05190 8.78103 22 ft 24 kts 79°
2026-04-18 10:29 53.05148 8.78375 22 ft 18 kts 120°
2026-04-18 10:30 53.05101 8.78485 22 ft 10 kts 109°
2026-04-18 10:30 53.05132 8.78578 22 ft 6 kts 51°
2026-04-18 10:30 53.05137 8.78588 22 ft 1 kts 47°
2026-04-18 10:30 53.05140 8.78593 22 ft 0 kts 49°
2026-04-18 10:31 53.05140 8.78594 22 ft 0 kts 49°